Location: Sabalos
(43.2860°N, 0.1414°E)
Time: 04:02:06
(UTC+00:00)

NOSS 3-3 (A) - Pass Details

Date: 05 July 2020
Orbit: 825 x 1387 km, 63.4° (Epoch: 03 August)

Event Time Altitude Azimuth Distance (km) Brightness Sun altitude
Rises 22:14:20 0° 227° (SW) 3,403 6.7 -19.4°
Reaches altitude 10° 22:16:44 10° 231° (SW) 2,510 6.0 -19.6°
Maximum altitude 22:22:27 61° 311° (NW) 1,054 4.4 -20.0°
Drops below altitude 10° 22:28:58 10° 32° (NNE) 2,837 6.9 -20.5°
Sets 22:31:49 0° 36° (NE) 3,882 7.6 -20.7°
